Regional Weather Roundup
Issued by NWS

Home | Current Version | Previous Version | Graphics & Text | Print | Product List | Glossary On
Versions: 1 2 3 4 5 6 7 8 9 10 11 12 13 14 15 16 17 18 19 20 21 22 23 24 25 26 27 28 29 30 31 32 33 34 35 36 37 38 39 40 41 42 43 44 45 46 47 48 49 50
000
ASUS45 KSLC 272010
RWRUT

UTAH REGIONAL WEATHER ROUNDUP
NATIONAL WEATHER SERVICE SALT LAKE CITY UT
200 PM MDT MON JUL 27 2015

UTZ001>011-023>025-272100-

NORTHERN UTAH

CITY           SKY/WX    TMP DP  RH WIND       PRES   REMARKS
BRIGHAM CITY   CLOUDY    67  46  46 NW17      30.06R
HILL AFB       PTSUNNY   66  45  45 VRB6      30.06S
LOGAN          NOT AVBL
OGDEN          PTSUNNY   70  44  39 NW7       30.05R
PROVO AIRPORT  MOSUNNY   75  45  33 NW17G29   30.01R
SALT LAKE CITY MOSUNNY   72  44  36 N9        30.03F
VERNAL         SUNNY     86  23  10 W17G30    29.87F
WENDOVER       PTSUNNY   77  34  20 W17G23    30.01F
HEBER CITY     SUNNY     81  34  18 W10G25    30.01R
WEST JORDAN    SUNNY     72  45  37 NE14G21   30.06S

$$

UTZ012>022-026-027-272100-

SOUTHERN/CENTRAL UTAH

CITY           SKY/WX    TMP DP  RH WIND       PRES   REMARKS
BLANDING       SUNNY     87  32  14 SW18G30   30.13F
BRYCE CANYON   SUNNY     77  27  15 SW18G31   30.21S
CEDAR CITY     SUNNY     85  20   9 S20G28    30.05F
DELTA          SUNNY     82  31  16 N12G23    29.99S
HANKSVILLE     SUNNY     95  27   8 S22G29    29.91F
MILFORD        SUNNY     89  29  11 S16       29.98F
MOAB/CYNLANDS  SUNNY     94  30  10 SW20G30   29.89F
PRICE          SUNNY     89  22   8 SW23G32   29.97F
ST GEORGE      CLEAR     93  34  12 CALM      29.90F
KANAB          SUNNY     90  32  12 W13G21    30.08F

$$

REGIONAL REPORTS     COLORADO/ARIZONA

CITY           SKY/WX    TMP DP  RH WIND       PRES   REMARKS
CRAIG, CO      MOSUNNY   88  41  19 SW28G40   29.96F
GRAND JUNCTION SUNNY     93  39  15 S21G30    29.90F
RIFLE          MOSUNNY   91  41  17 S25G35    29.94F
MONTROSE       SUNNY     89  43  20 SW23G33   30.02F
CORTEZ         SUNNY     87  37  17 SW12      30.09F
PAGE, AZ       SUNNY     95  17   6 VRB6      29.95S
GRAND CANYON   SUNNY     84  31  14 SW15G31   30.18F
KINGMAN        SUNNY     94  19   6 SW18G26   29.96F
FLAGSTAFF      SUNNY     77  42  28 SW22G29   30.23F

$$

REGIONAL REPORTS    NEVADA/IDAHO/WYOMING

CITY           SKY/WX    TMP DP  RH WIND       PRES   REMARKS
LAS VEGAS, NV  SUNNY     97  26   8 VRB3      29.81F HX  91
ELY            SUNNY     74  26  16 VRB3      30.13S
ELKO           SUNNY     72  35  25 W17G25    30.11S
POCATELLO, ID  PTSUNNY   62  49  62 SW21G26   30.06F
BURLEY         SUNNY     66  42  41 W14G29    30.04F
EVANSTON, WY   PTSUNNY   67  39  35 W18G28    30.11R
ROCK SPRINGS   MOSUNNY   80  28  15 SW35G46   29.92S
KEMMERER       MOSUNNY   59  37  44 W39G52    30.10R

$$


USA.gov is the U.S. government's official web portal to all federal, state and local government web resources and services.